Home > Weather > Wesseling > Past weeks

Flag for Germany Past Weather in Wesseling, North Rhine-Westphalia, Germany — Yesterday and Last 2 Weeks

Now
66 °F

Broken clouds.


Feels Like: 66 °F
Forecast: 61 / 70 °F
Wind: 14 mph from West

Location: Koeln / Bonn

Current Time: Jun 29, 2016 at 12:55:54 PM

Latest Report: Jun 29, 2016 at 12:20 PM


Visibility: N/A

Pressure: 29.95 "Hg

Humidity: 56%

Dew Point: 50 °F

Location of WesselingLocation

Past Weather in Wesseling — Graph

°F

Wesseling Temperature Yesterday

Maximum temperature yesterday: 75 °F (at 6:20 PM)
Minimum temperature yesterday: 55 °F (at 4:20 AM)
Average temperature yesterday: 65 °F

High & Low Weather Summary for the Past Weeks

 TemperatureHumidityPressure
High91 °F (Jun 23, 3:20 PM)100% (Jun 15, 3:20 AM)30.27 "Hg (Jun 15, 3:20 AM)
Low45 °F (Jun 16, 2:50 AM)41% (Jun 23, 5:20 PM)29.47 "Hg (Jun 14, 5:50 PM)
Average63 °F81%29.96 "Hg
* Reported Jun 14 11:20 AM — Jun 29 11:20 AM, Wesseling, Weather by CustomWeather, © 2016

Note: Actual official high and low records may vary slightly from our data, if they occured in-between our weather recording intervals... More about our weather records

Advertising

Wesseling Weather History for the Previous 24 Hours

Scroll right to see more
 ConditionsComfort  
Time TempWeatherWind HumidityBarometerVisibility
11:20 AM
Wed, Jun 29
64 °FBroken clouds.17 mph60%29.92 "HgN/A
10:50 AM64 °FBroken clouds.17 mph60%29.92 "HgN/A
10:20 AM64 °FScattered clouds.18 mph60%29.92 "HgN/A
9:50 AM64 °FScattered clouds.14 mph68%29.92 "HgN/A
9:20 AM63 °FScattered clouds.15 mph68%29.92 "HgN/A
8:50 AM63 °FScattered clouds.18 mph68%29.92 "HgN/A
8:20 AM63 °FScattered clouds.16 mph68%29.89 "HgN/A
7:50 AM61 °FScattered clouds.14 mph77%29.92 "HgN/A
7:20 AM61 °FScattered clouds.10 mph77%29.89 "HgN/A
6:50 AM61 °FScattered clouds.13 mph83%29.89 "HgN/A
6:20 AM61 °FScattered clouds.12 mph83%29.89 "HgN/A
5:50 AM61 °FPassing clouds.12 mph88%29.86 "HgN/A
5:20 AM63 °FPassing clouds.12 mph83%29.86 "HgN/A
4:50 AM63 °FPassing clouds.8 mph88%29.86 "HgN/A
4:20 AM63 °FPassing clouds.12 mph83%29.86 "HgN/A
3:50 AM63 °FPassing clouds.9 mph88%29.86 "HgN/A
3:20 AM63 °FPartly cloudy.9 mph88%29.86 "HgN/A
2:50 AM63 °FClear.8 mph88%29.86 "Hg10 mi
2:20 AM63 °FPassing clouds.8 mph88%29.86 "HgN/A
1:50 AM61 °FPartly cloudy.8 mph94%29.86 "HgN/A
1:20 AM63 °FRain showers. Passing clouds.9 mph88%29.86 "HgN/A
12:50 AM63 °FSprinkles. Passing clouds.7 mph88%29.86 "HgN/A
12:20 AM63 °FClear.8 mph83%29.86 "Hg10 mi
11:50 PM
Tue, Jun 28
63 °FClear.8 mph77%29.89 "Hg10 mi
11:20 PM64 °FClear.8 mph73%29.89 "Hg10 mi
10:50 PM63 °FClear.7 mph77%29.89 "Hg10 mi
10:20 PM66 °FSunny.9 mph64%29.89 "Hg10 mi
9:50 PM66 °FSunny.7 mph64%29.89 "Hg10 mi
9:20 PM68 °FSunny.6 mph56%29.92 "Hg10 mi
8:50 PM68 °FSunny.8 mph56%29.92 "Hg10 mi
8:20 PM70 °FSunny.10 mph53%29.92 "Hg10 mi
7:50 PM72 °FPassing clouds.6 mph47%29.92 "HgN/A
7:20 PM72 °FPassing clouds.10 mph44%29.92 "HgN/A
6:50 PM72 °FPartly sunny.7 mph47%29.92 "HgN/A
6:20 PM75 °FSunny.10 mph41%29.95 "Hg10 mi
5:50 PM73 °FPassing clouds.7 mph47%29.95 "HgN/A
5:20 PM73 °FPassing clouds.7 mph47%29.98 "HgN/A
4:50 PM73 °FPassing clouds.7 mph47%29.98 "HgN/A
4:20 PM73 °FPassing clouds.6 mph47%29.98 "HgN/A
3:50 PM73 °FScattered clouds.8 mph47%29.98 "HgN/A
3:20 PM72 °FScattered clouds.5 mph47%29.98 "HgN/A
2:50 PM72 °FScattered clouds.5 mph53%30.01 "HgN/A
2:20 PM72 °FScattered clouds.7 mph50%30.01 "HgN/A
1:50 PM72 °FScattered clouds.7 mph53%30.01 "HgN/A
1:20 PM70 °FScattered clouds.6 mph57%30.04 "HgN/A
12:50 PM70 °FBroken clouds.6 mph60%30.04 "HgN/A
12:20 PM68 °FBroken clouds.6 mph64%30.04 "HgN/A
Weather by CustomWeather, © 2016

See weather overviewHow to use our weather pages